Back to catalog

FENGYUN 1C DEB

AliveSSO
NORAD 30770·DEBRIS·🇨🇳 China

Launched May 10, 1999 from Taiyuan Satellite Launch Center

Loading…

Next Passes (next 24 hours)

TLE

FreshSource: Space-Track

Epoch: Sep 14, 2026, 11:44 UTC

1 30770U 99025AUG 26257.48916159  .00000311  00000-0  17936-3 0  9991
2 30770  98.6575 260.6867 0012907 210.2933 312.1560 14.15977852  8008

Track FENGYUN 1C DEB in real time with AllMySat

Download on the App Store